www.pogodaiklimat.ru

Погода и климат >> Архив погоды >> Киргизия >> Токмок


ПОГОДА в Токмоке

  • Прогноз погоды в Токмоке
  • Монитор погоды в Токмоке

АРХИВ ПОГОДЫ в Токмоке

Время (UTC), дата Ветер
(напр.,м/с)
 
Видим.   Явления Облачность Т
(С)
Тd
(С)
f
(%)
Тe
(С)
Тes
(С)
Комфортность P
(гПа)
Po
(гПа)
Тmin
(С)
Tmax
(С)
R
(мм)
R24
(мм)
S
(см)
03 9.06 штиль 0 50 км 3/0
[Ac lent]
+20.1 +5.8 39 +21 +29 комфорт 1008.7 918.4 +12.6
06 9.06 З 3 50 км 4/0
[Ac lent]
+20.9 +9.0 46 +23 +33 комфорт 1009.6 919.5 +12.6
09 9.06 З 2 50 км 3/0
[Ac lent]
+24.2 +7.8 35 +25 +37 комфорт 1007.1 918.1
12 9.06 З 3 20 км 9/9 1000 м
[Cb cap]
+22.2 +8.6 42 +24 +24 комфорт 1007.8 918.2
15 9.06 штиль 0 20 км 10/8 1000 м
[Cb cap Ac und]
+17.7 +10.2 61 +18 +18 1011.2 920.0 +25.2
18 9.06 штиль 0 н/о слаб. ливневой дождь 10/10 600 м
[Cb cap]
+16.0 +14.0 88 +16 +16 1013.0 921.3 +25.2
21 9.06 штиль 0 н/о слаб. ливневой дождь 10/10 600 м
[Cb cap]
+13.9 +13.1 95 +13 +13 1013.8 921.3
00 10.06 В 1 20 км слаб. ливневой дождь 10/10 600 м
[Cb cap]
+13.4 +12.3 93 +14 +14 1013.9 921.2
03 10.06 В 2 50 км {ливн. осадки} 9/0
[Ac und Ci sp]
+17.2 +11.3 68 +18 +21 1013.0 921.5 +13.3 5
06 10.06 Ю 2 50 км 9/0
[Ac und]
+20.2 +12.2 60 +23 +30 комфорт 1012.6 921.7 +13.3 5
09 10.06 З 3 20 км 10/3 1000 м
[Cb calv Ac und]
+20.8 +11.9 57 +23 +26 комфорт 1011.4 921.2
12 10.06 З 3 20 км ливневой дождь 10/10 600 м
[Cb cap]
+12.2 +10.6 90 +11 +11 1019.5 925.9
15 10.06 штиль 0 20 км слаб. ливневой дождь 10/10 600 м
[Cb cap]
+11.8 +10.6 92 +11 +11 1021.1 927.3 +21.3 4
18 10.06 В 3 н/о {ливн. осадки} 10/10 600 м
[Cb cap]
+12.0 +10.0 88 +10 +10 1020.0 926.3 +21.3 4
21 10.06 В 3 н/о ясно +11.2 +8.8 85 +9 +9 1018.8 924.9
00 11.06 СВ 1 50 км 9/0
[Ac und]
+10.8 +8.5 86 +10 +11 1019.1 925.0
03 11.06 штиль 0 50 км 9/0
[Ac und]
+16.5 +8.8 60 +16 +21 1017.2 925.1 +10.7 0.3
06 11.06 З 1 20 км 9/3 1000 м
[Cb cap Ac cuf]
+20.4 +9.5 50 +23 +29 комфорт 1015.1 924.4 +10.7 0.3
09 11.06 З 2 50 км 10/10 1000 м
[Cb cap]
+18.5 +7.3 48 +19 +19 1015.7 924.3
12 11.06 штиль 0 20 км 9/9 1000 м
[Cb cap]
+20.0 +6.5 41 +21 +21 комфорт 1014.9 924.0
15 11.06 СЗ 1 50 км {ливн. осадки} 10/10 1000 м
[Cb cap]
+13.6 +11.5 87 +14 +14 1019.2 926.1 +22.3
18 11.06 В 2 н/о {ливн. осадки} ясно +12.4 +9.4 82 +11 +11 1018.8 925.3 +22.3 0.6
21 11.06 В 1 н/о ясно +11.3 +8.0 80 +11 +11 1017.8 924.0
00 12.06 В 1 50 км 8/0
[Ac lent]
+11.1 +7.6 79 +11 +11 1017.7 923.8
03 12.06 В 1 50 км 1/0
[Ac lent]
+18.8 +8.4 51 +20 +29 1015.0 923.8 +11.0
06 12.06 ЮЗ 3 50 км 3/1 1000 м
[Cb calv Ac lent]
+22.5 +5.9 34 +23 +35 комфорт 1013.4 923.3 +11.0
09 12.06 З 3 20 км 10/8 1000 м
[Cb cap Ac und]
+21.4 +7.0 39 +22 +23 комфорт 1014.1 923.6
12 12.06 Ю 2 20 км 9/6 1000 м
[Cb cap Ac lent]
+19.3 +10.0 55 +21 +22 комфорт 1016.0 924.9
15 12.06 В 1 20 км 10/10 1000 м
[Cb cap]
+18.1 +9.8 58 +19 +19 1016.1 924.6 +23.3
18 12.06 В 3 н/о 9/6 600 м
[Cb cap Ac trans]
+16.9 +9.4 61 +17 +17 1015.9 924.0 +23.3
21 12.06 В 2 н/о 3/0
[Ac trans]
+15.6 +8.2 61 +16 +16 1015.0 922.7
00 13.06 В 3 50 км 1/0
[Ac trans]
+15.1 +8.0 63 +14 +15 1013.6 921.4
03 13.06 В 4 50 км ясно +21.8 +8.9 44 +23 +29 комфорт 1010.9 920.9 +14.9
06 13.06 З 3 50 км 1/1 1000 м
[Cu med, cong]
+27.0 +6.8 28 +27 +41 жарко 1008.3 920.0 +14.9
09 13.06 ЮЗ 3 50 км ясно +7.7 -5 +9 1007.4 919.5
12 13.06 ЮЗ 20 50 км ясно +27.2 +7.7 29 +27 +27 жарко 1007.8 919.0
15 13.06 штиль 0 50 км ясно +22.2 +10.4 47 +24 +24 комфорт 1008.3 918.7 +28.7
18 13.06 В 3 н/о ясно +18.6 +8.6 52 +19 +19 1009.3 918.5 +28.7
21 13.06 В 2 н/о ясно +16.0 +7.8 58 +16 +16 1008.4 916.9
00 14.06 В 4 50 км ясно +17.0 +7.0 52 +17 +17 1007.3 916.2
03 14.06 С 2 50 км ясно +25.3 +8.1 33 +25 +34 комфорт 1003.9 915.5 +15.8
06 14.06 С 2 50 км 1/1 1000 м
[Cu med, cong]
+29.7 +7.1 24 +29 +46 жарко 1001.1 914.2 +15.8
09 14.06 З 1 50 км 4/4 1000 м
[Cb cap]
+31.1 +10.4 28 +31 +42 жарко 999.7 913.3
12 14.06 З 1 50 км 8/8 1000 м
[Cb cap]
+28.5 +10.9 33 +29 +30 жарко 1000.4 913.3
15 14.06 З 1
{14}
50 км 9/4 1000 м
[Cb cap Ac cuf]
+21.9 +8.2 41 +23 +23 комфорт 1006.6 917.0 +31.7
18 14.06 В 1 н/о 9/9 1000 м
[Cb cap]
+19.1 +8.8 51 +21 +21 комфорт 1007.3 916.8 +31.7
21 14.06 В 1 н/о 6/0
[Ac cuf]
+18.5 +8.2 51 +20 +20 1005.9 915.4
00 15.06 штиль 0 50 км ?/? +18.6 +7.7 49 +19 +19 1005.3 914.9
03 15.06 В 2 50 км ясно +25.5 +8.5 34 +26 +34 жарко 1002.6 914.4 +18.3
06 15.06 З 2 50 км 3/1 1000 м
[Cu hum Ci fib]
+29.8 +5.1 21 +28 +44 жарко 1001.6 914.6 +18.3
09 15.06 ЮЗ 3 20 км 10/8 1000 м
[Cb cap Ac und]
+26.3 +8.6 33 +27 +27 жарко 1003.4 915.4
12 15.06 В 2 50 км {ливн. осадки} 10/4 1000 м
[Cb cap Ac und]
+23.2 +11.7 48 +26 +26 жарко 1005.8 916.7
15 15.06 штиль 0 50 км 8/8 1000 м
[Cb cap]
+21.0 +12.5 58 +23 +23 комфорт 1008.0 918.2 +30.2 0.6
18 15.06 З 1 н/о 10/6 600 м
[Cb cap Ac und]
+18.5 +10.7 60 +20 +20 1010.7 919.8 +30.2 0.6
21 15.06 В 2 н/о 6/0
[Ac cuf]
+17.0 +11.3 69 +17 +17 1008.8 917.6

 

Местоположение метеостанции Токмок (Чуйская область, Киргизия): широта 42.83 долгота 75.28 высота над уровнем моря 817 м.

В архиве по умолчанию представлена погода в Токмоке за последнюю неделю. Архивные данные за месяц целиком и за предыдущие месяцы, начиная с января 2011 года, Вы можете получить, выбрав интересующий диапазон дат из раскрывающегося списка и нажав кнопку "Ввод!".


*Определитесь, кто Вы:
робот инопланетянин человек

Внимание! Время в таблицах - всемирное. Для получения местного времени необходимо прибавить поправку, которая равна 5 ч.

Смотрите также архив погоды в соседних городах и на ближайших метеорологических станциях:

Погода в Иссык-Ате (город Бишкек, Киргизия) (34 км)
Погода в Бишкеке (город Бишкек, Киргизия) (61 км)
Погода в Кордае (Жамбылская область, Казахстан) (63 км)
Погода в Байтике (Чуйская область, Киргизия) (67 км)
Погода в Отаре (Жамбылская область, Казахстан) (78 км)
Погода в Иссык-Куле (Иссык-Кульская область, Киргизия) (84 км)
Погода в Узынагаше (Алматинская область, Казахстан) (88 км)
Погода в Бериктасе (Жамбылская область, Казахстан) (88 км)
Погода в Ынтымаке (Алматинская область, Казахстан) (95 км)
Погода в Яны-Жере (Чуйская область, Киргизия) (106 км)

Пояснения к столбцам:

Ветер - указаны скорость ветра в м/с - средняя за 10 мин, порывы в срок и между сроками (в фигурных скобках) и направление, откуда дует ветер: С - северный, СВ - северо-восточный, В - восточный, ЮВ - юго-восточный, Ю - южный, ЮЗ - юго-западный, З - западный, СЗ - северо-западный.
Видимость - горизонтальная дальность видимости в метрах или километрах. При видимости от 1 до 10 км при отсутствии осадков обычно наблюдается дымка, при ухудшении видимости до 1 км и менее - туман. В сухую погоду видимость может ухудшаться дымом, пылью или мглою.
Явления - указаны атмосферные явления, наблюдавшиеся в срок или в последний час перед сроком; фигурными скобками обозначены явления, наблюдавшиеся между сроками (за 1-3 часа до срока); квадратными скобками обозначены град или гололедные отложения с указанием их диаметра в мм.
Облачность - указаны через наклонную черту общая и нижняя облачность в баллах и высота нижней границы облаков в метрах; квадратными скобками обозначены формы облаков: Ci - перистые, Cs - перисто-слоистые, Cc - перисто-кучевые, Ac - высококучевые, As - высокослоистые, Sc - слоисто-кучевые, Ns - слоисто-дождевые, Cu - кучевые, Cb - кучево-дождевые. Подробнее классификацию облаков см. в Атласе облаков (PDF).
T - Температура воздуха - температура, измеренная на высоте 2 м над землей.
Td - Температура точки росы - температура, при понижении до которой содержащийся в воздухе водяной пар достигнет насыщения.
f - Относительная влажность воздуха - влажноcть воздуха, измеренная на высоте 2 м над землей.
Te - Эффективная температура - температура, которую ощущает одетый по сезону человек в тени. Характеристика душности погоды. При расчете учитывается влияние влажности воздуха и скорости ветра на теплоощущения человека.
Tes - Эффективная температура на солнце - температура, которую ощущает человек, с поправкой на солнечный нагрев. Характеристика знойности погоды. Зависит от высоты солнца над горизонтом, облачности и скорости ветра. Ночью, в пасмурную погоду, а также при ветре 12 м/с и более поправка равна нулю.
P - Атмосферное давление - приведенное к уровню моря атмосферное давление.
Po - Атмосферное давление - измеренное на уровне метеостанции атмосферное давление.
Tmin - Минимальная температура - минимум температуры воздуха на высоте 2 м над землей.
Tmax - Максимальная температура - максимум температуры воздуха на высоте 2 м над землей.
R - Количество осадков - Количество выпавших осадков за период времени, мм. При наведении курсора мыши на число - период времени, за который выпало указанное количество осадков.
R24 - Количество осадков - Количество выпавших осадков за 24 часа, мм.
S - Снежный покров - Высота снежного покрова, см. При наведении курсора мыши на число - состояние снежного покрова и степень покрытия местности в баллах.